Simultaneous Nadir Overpasses (SNOs) Predictions

Prediction of SNOs between LANDSAT-8 and METOP-B Satellite Orbit:

Table of predicted SNOs for the next 14.0 days since TLE Epoch: 1/30/2021
Index Date (LANDSAT-8) Time (LANDSAT-8) Lat,Lon (LANDSAT-8) SZA (LANDSAT-8 ) Date (METOP-B) Time (METOP-B) Lat,Lon (METOP-B) SZA (METOP-B ) Distance(km) Time Diff (sec)
1 01/30/2021 21:13:32 -81.12, 81.24 79.86 01/30/2021 21:13:04 -81.12, 81.37 79.85 2.31 28
2 01/30/2021 22:02:57 81.15,-110.64 100.20 01/30/2021 22:03:43 81.14,-110.77 100.20 2.34 46
3 02/02/2021 16:47:47 -81.11, 147.64 80.68 02/02/2021 16:47:26 -81.12, 147.69 80.67 1.10 21
4 02/02/2021 17:37:12 81.14, -44.26 99.38 02/02/2021 17:38:04 81.15, -44.12 99.42 2.57 52
5 02/05/2021 12:22:01 -81.13,-145.63 81.48 02/05/2021 12:21:47 -81.13,-145.63 81.49 0.33 14
6 02/05/2021 13:11:25 81.16, 22.44 98.57 02/05/2021 13:12:24 81.16, 22.52 98.60 1.32 59
7 02/08/2021 07:56:15 -81.13, -79.30 82.38 02/08/2021 07:56:08 -81.12, -79.35 82.38 0.84 7
8 02/08/2021 08:45:40 81.15, 88.75 97.68 02/08/2021 08:46:46 81.15, 88.76 97.70 0.17 66
9 02/11/2021 02:41:13 80.86, 175.81 96.19 02/11/2021 02:39:59 80.96, 175.65 96.24 11.40 74
10 02/11/2021 03:30:29 -81.14, -12.65 83.25 02/11/2021 03:30:29 -81.13, -12.71 83.27 1.37 0



Historial Predications of SNOs between LANDSAT-8 and METOP-B
